Погода в Боргустанской

Россия / Ставропольский край     44°03′13″N   42°31′51″E
темп.,
°C
ветер,
м/с
пор.,
м/с
влажн.,
%
обл.,
%
осадки,
мм/ч
давл.,
гПа
погр.,
м
8 марта, пн
пн800:00−9зюз22790 0.0 102327
03:00−10з23800 0.0 102251
06:00−11ю228531 0.0 102231
09:00−6вюв118332 0.0 1020159
12:00−3св227966 0.0 1019592
15:00−2св227582 0.1 1017636
18:00−4св117999 0.1 101822
21:00−7юз128999 0.1 101930
9 марта, вт
вт900:00−8ююз228793 0.0 101926
03:00−9ююз228174 0.0 101925
06:00−9ю2276100 0.0 101826
09:00−4ююз116852 0.0 101898
12:00−1сз236840 0.0 1016590
15:000сз227326 0.0 1016893
18:00−4сз119593 0.3 101849
21:00−4зсз239797 1.7 1021137
10 марта, ср
ср1000:00−6зюз239698 0.6 102297
03:00−9юз238995 1.0 102376
06:00−9юз237896 0.3 102476
09:00−6зюз127273 0.3 1024137
12:00−3ссв217733 0.0 1022481
15:00−3ссв238954 0.1 1021448
18:00−5св2397100 0.4 1020129
21:00−5всв4796100 1.0 1020429
11 марта, чт
чт1100:00−6в5895100 0.6 1019439
03:00−6в5896100 2.6 1018412
06:00−7в61096100 1.9 1017576
09:00−8в81295100 3.9 1017711
12:00−8в101395100 2.4 1017882
15:00−8в91395100 5.1 1019991
18:00−11в81296100 2.3 1021855
21:00−12в71195100 3.4 1023692
12 марта, пт
пт1200:00−12в5996100 0.6 1024497
03:00−13в3697100 0.9 1025278
06:00−16юв229589 0.0 102722
09:00−13в238746 0.1 1028204
12:00−9в338626 0.0 1026393
15:00−8в338858 0.0 1026383
18:00−12юв229465 0.0 102723
21:00−11ююз227047 0.0 102921